�N����,����,�~����,�C��,���x,�C��,����,���ϕ���,�ő�u�ԕ���,�ő厞����,���˗�,�I�_���x,�n�����x,�ő啗���N��,DTYPE
"22/08/09","00:10",0.0,26.2,86.3,1005.5,280.2,0.7,1.3,319.9,0.00,23.8,26.7,"00:02:24",1
"22/08/09","00:20",0.0,26.2,86.5,1005.5,297.7,0.6,1.4,342.4,0.00,23.8,26.6,"00:12:48",1
"22/08/09","00:30",0.0,26.4,86.5,1005.5,329.0,0.8,1.9,303.9,0.00,24.0,26.7,"00:26:24",1
"22/08/09","00:40",0.0,26.5,86.2,1005.7,302.6,0.7,1.6,346.3,0.00,24.0,26.7,"00:30:48",1
"22/08/09","00:50",0.0,26.6,86.0,1005.5,316.9,1.0,1.8,357.4,0.00,24.1,26.7,"00:45:04",1
"22/08/09","01:00",0.0,26.6,85.9,1005.5,345.4,0.8,1.3,356.7,0.00,24.1,26.6,"00:52:32",1
"22/08/09","01:10",0.0,26.6,85.9,1005.2,351.0,1.1,2.0,328.2,0.00,24.1,26.4,"01:05:12",1
"22/08/09","01:20",0.0,26.5,86.0,1005.2,359.2,0.6,1.3,9.1,0.00,24.0,26.7,"01:12:08",1
"22/08/09","01:30",0.0,26.6,86.1,1005.5,359.7,1.1,1.9,67.0,0.00,24.1,26.7,"01:25:28",1
"22/08/09","01:40",0.0,26.6,86.1,1005.5,334.1,0.8,1.7,339.9,0.00,24.1,26.5,"01:33:20",1
"22/08/09","01:50",0.0,26.4,86.3,1005.2,331.9,1.0,1.9,313.9,0.00,24.0,26.5,"01:48:40",1
"22/08/09","02:00",0.0,26.4,86.8,1005.5,354.2,1.0,1.9,351.9,0.00,24.1,26.5,"01:57:28",1
"22/08/09","02:10",0.0,26.3,87.2,1005.5,358.5,1.1,2.0,347.4,0.00,24.0,26.4,"02:00:24",1
"22/08/09","02:20",0.0,26.3,87.4,1005.5,6.2,0.5,1.1,333.9,0.00,24.1,26.5,"02:19:36",1
"22/08/09","02:30",0.0,26.2,87.6,1005.2,338.4,1.0,2.1,347.8,0.00,24.0,26.2,"02:26:08",1
"22/08/09","02:40",0.0,26.2,88.0,1005.5,340.8,1.0,2.0,30.9,0.00,24.1,26.7,"02:32:40",1
"22/08/09","02:50",0.0,26.1,88.3,1005.2,348.0,1.0,1.7,321.5,0.00,24.1,26.4,"02:40:08",1
"22/08/09","03:00",0.0,26.0,88.7,1005.2,324.0,1.2,1.7,343.2,0.00,24.0,26.3,"02:53:20",1
"22/08/09","03:10",0.0,25.9,88.9,1005.5,312.8,1.0,1.4,344.4,0.00,24.0,26.5,"03:05:28",1
"22/08/09","03:20",0.0,25.8,89.1,1005.2,298.3,0.7,1.3,327.3,0.00,23.9,26.4,"03:16:16",1
"22/08/09","03:30",0.0,25.8,89.4,1005.2,316.9,1.0,1.3,317.7,0.00,24.0,26.3,"03:27:44",1
"22/08/09","03:40",0.0,25.8,89.5,1005.2,7.1,0.6,1.4,334.6,0.00,24.0,26.3,"03:30:48",1
"22/08/09","03:50",0.0,25.7,89.7,1005.5,316.2,0.5,1.0,261.2,0.00,23.9,26.5,"03:48:40",1
"22/08/09","04:00",0.0,25.5,89.9,1005.5,316.5,0.7,1.3,320.1,0.00,23.8,26.1,"03:59:44",1
"22/08/09","04:10",0.0,25.5,90.1,1005.7,339.9,0.8,1.8,2.3,0.00,23.8,26.3,"04:04:08",1
"22/08/09","04:20",0.0,25.4,90.2,1006.0,314.3,0.6,1.0,357.7,0.00,23.7,26.3,"04:10:16",1
"22/08/09","04:30",0.0,25.4,90.5,1005.7,330.8,0.8,1.3,316.8,0.00,23.8,26.2,"04:29:52",1
"22/08/09","04:40",0.0,25.2,90.7,1006.2,308.6,0.7,1.6,323.4,0.00,23.6,26.3,"04:30:32",1
"22/08/09","04:50",0.0,25.1,90.9,1005.7,306.4,0.8,1.4,324.7,0.00,23.5,26.3,"04:47:28",1
"22/08/09","05:00",0.0,25.1,91.2,1006.0,288.1,0.7,1.3,334.2,0.00,23.6,26.1,"04:50:02",1
"22/08/09","05:10",0.0,25.1,91.2,1005.7,319.5,1.1,1.6,332.9,0.00,23.6,26.2,"05:00:08",1
"22/08/09","05:20",0.0,25.1,91.4,1006.0,307.8,0.8,1.4,311.7,0.00,23.6,26.2,"05:17:52",1
"22/08/09","05:30",0.0,25.0,91.5,1006.0,314.3,1.1,1.9,329.7,0.00,23.6,26.2,"05:26:24",1
"22/08/09","05:40",0.0,25.0,91.6,1006.2,326.8,1.0,1.4,350.8,0.00,23.6,25.9,"05:34:00",1
"22/08/09","05:50",0.0,24.9,91.6,1006.2,323.0,0.7,1.4,301.4,0.00,23.5,26.0,"05:43:52",1
"22/08/09","06:00",0.0,24.8,91.8,1006.2,271.9,0.6,0.9,259.4,0.00,23.4,26.2,"05:52:00",1
"22/08/09","06:10",0.0,24.8,91.9,1006.2,299.4,0.7,1.2,308.9,0.00,23.4,26.0,"06:09:20",1
"22/08/09","06:20",0.0,25.0,92.0,1006.4,335.6,1.0,1.4,336.6,0.00,23.6,26.2,"06:15:36",1
"22/08/09","06:30",0.0,25.1,92.0,1006.0,333.7,1.0,1.6,342.2,0.00,23.7,26.2,"06:24:16",1
"22/08/09","06:40",0.0,25.3,92.1,1006.4,317.0,0.8,1.6,329.5,0.01,24.0,26.1,"06:30:48",1
"22/08/09","06:50",0.0,25.7,92.2,1006.2,286.0,0.6,1.0,270.8,0.03,24.4,26.0,"06:44:16",1
"22/08/09","07:00",0.0,26.5,92.1,1006.2,319.9,0.5,0.9,335.5,0.04,25.2,26.1,"06:52:08",1
"22/08/09","07:10",0.0,27.3,91.7,1006.2,331.0,0.2,1.0,353.8,0.05,25.9,26.0,"07:09:04",1
"22/08/09","07:20",0.0,27.1,91.3,1006.4,351.8,0.8,1.3,9.1,0.07,25.6,26.2,"07:10:24",1
"22/08/09","07:30",0.0,27.8,90.7,1006.0,330.9,0.3,0.8,352.8,0.09,26.2,26.0,"07:21:12",1
"22/08/09","07:40",0.0,28.3,89.3,1006.0,358.7,0.3,1.3,24.2,0.11,26.4,26.0,"07:37:44",1
"22/08/09","07:50",0.0,28.6,87.2,1006.0,4.5,0.7,1.4,359.7,0.15,26.3,26.1,"07:49:28",1
"22/08/09","08:00",0.0,29.6,84.4,1006.2,4.0,0.6,1.3,358.6,0.16,26.7,25.8,"07:55:44",1
"22/08/09","08:10",0.0,30.2,80.8,1006.2,25.3,0.5,1.4,42.7,0.18,26.6,25.9,"08:02:16",1
"22/08/09","08:20",0.0,30.8,78.3,1006.4,132.1,0.6,1.7,126.1,0.20,26.6,26.1,"08:18:00",1
"22/08/09","08:30",0.0,31.0,76.1,1006.7,120.3,0.7,1.9,113.2,0.20,26.3,26.1,"08:23:20",1
"22/08/09","08:40",0.0,30.4,76.1,1006.7,155.7,0.7,1.8,184.7,0.13,25.8,26.0,"08:31:04",1
"22/08/09","08:50",0.0,30.2,76.1,1006.9,197.3,0.8,2.0,227.0,0.13,25.6,25.8,"08:48:56",1
"22/08/09","09:00",0.0,30.1,77.0,1006.9,160.7,0.7,1.9,137.2,0.14,25.7,26.1,"08:54:00",1
"22/08/09","09:10",0.0,30.3,77.4,1006.9,147.3,0.7,1.6,129.1,0.13,25.9,26.0,"09:04:56",1
"22/08/09","09:20",0.0,30.5,77.4,1006.9,149.9,0.6,1.3,199.0,0.17,26.1,26.1,"09:10:48",1
"22/08/09","09:30",0.0,31.2,75.0,1007.1,93.7,0.7,3.2,135.5,0.25,26.3,26.0,"09:28:00",1
"22/08/09","09:40",0.0,31.4,73.1,1007.4,187.6,0.7,2.0,216.9,0.20,26.0,26.3,"09:39:28",1
"22/08/09","09:50",0.0,31.5,73.3,1007.1,164.1,1.1,2.2,206.4,0.22,26.2,26.2,"09:46:00",1
"22/08/09","10:00",0.0,32.2,71.1,1007.4,128.2,1.3,3.1,138.2,0.42,26.3,26.0,"09:59:12",1
"22/08/09","10:10",0.0,33.4,68.4,1007.8,101.2,0.8,1.8,338.4,0.48,26.8,26.2,"10:07:12",1
"22/08/09","10:20",0.0,33.1,66.6,1007.6,14.0,1.0,2.1,4.7,0.25,26.1,26.3,"10:14:32",1
"22/08/09","10:30",0.0,33.7,66.9,1007.8,39.0,0.6,1.8,146.9,0.45,26.7,26.2,"10:29:20",1
"22/08/09","10:40",0.0,34.2,63.7,1008.1,140.7,0.6,1.8,139.9,0.40,26.4,26.5,"10:30:48",1
"22/08/09","10:50",0.0,33.1,64.6,1007.6,358.2,1.1,2.4,6.6,0.17,25.6,26.2,"10:48:56",1
"22/08/09","11:00",0.0,32.8,66.5,1007.4,336.2,1.2,2.9,324.1,0.32,25.8,26.4,"10:56:40",1
"22/08/09","11:10",0.0,32.8,65.5,1007.1,353.0,1.2,2.6,8.5,0.21,25.5,26.6,"11:07:04",1
"22/08/09","11:20",0.0,32.7,65.4,1006.9,351.1,0.8,2.5,347.9,0.16,25.4,26.5,"11:16:48",1
"22/08/09","11:30",0.0,32.9,64.4,1006.4,226.9,1.3,3.3,238.1,0.25,25.3,26.6,"11:29:04",1
"22/08/09","11:40",0.0,34.0,61.4,1006.9,223.0,1.7,4.2,237.0,0.48,25.6,26.6,"11:34:00",1
"22/08/09","11:50",0.0,33.7,62.5,1006.7,332.7,0.8,1.8,355.7,0.16,25.6,26.6,"11:44:40",1
"22/08/09","12:00",0.0,33.9,64.9,1006.7,304.9,0.6,2.1,2.4,0.23,26.4,26.5,"11:52:16",1
"22/08/09","12:10",0.0,33.8,63.8,1006.2,80.3,0.7,2.2,126.6,0.18,26.0,26.6,"12:04:56",1
"22/08/09","12:20",0.0,33.5,64.5,1006.7,1.1,0.3,1.1,99.7,0.09,25.9,26.6,"12:10:24",1
"22/08/09","12:30",0.0,33.4,64.1,1006.4,14.2,1.0,2.5,235.3,0.16,25.7,26.7,"12:24:24",1
"22/08/09","12:40",0.0,33.7,63.3,1006.2,208.0,1.3,4.9,214.9,0.20,25.8,26.8,"12:37:20",1
"22/08/09","12:50",0.0,34.2,62.1,1006.0,232.8,1.0,3.4,227.0,0.28,25.9,26.8,"12:41:36",1
"22/08/09","13:00",0.0,34.8,60.9,1006.0,236.8,0.8,2.4,197.9,0.35,26.2,26.8,"12:53:12",1
"22/08/09","13:10",0.0,35.0,58.1,1006.2,197.1,1.2,2.6,239.5,0.41,25.6,26.9,"13:02:24",1
"22/08/09","13:20",0.0,35.4,58.5,1006.4,169.5,1.5,4.8,238.4,0.45,26.1,26.9,"13:15:04",1
"22/08/09","13:30",0.0,35.3,55.8,1006.4,290.9,1.0,3.1,307.8,0.30,25.2,26.7,"13:29:12",1
"22/08/09","13:40",0.0,35.8,57.0,1006.0,190.6,1.2,2.5,146.1,0.44,26.0,27.0,"13:32:24",1
"22/08/09","13:50",0.0,36.5,54.8,1005.7,152.5,1.1,3.7,231.7,0.46,26.0,27.0,"13:41:20",1
"22/08/09","14:00",0.0,35.8,53.5,1006.0,199.5,1.5,3.1,229.5,0.31,24.9,27.0,"13:52:16",1
"22/08/09","14:10",0.0,36.0,53.1,1006.0,235.5,1.8,4.1,237.4,0.50,25.0,27.1,"14:03:28",1
"22/08/09","14:20",0.0,36.6,52.5,1006.0,235.6,1.7,5.0,219.0,0.52,25.3,27.1,"14:11:28",1
"22/08/09","14:30",0.0,36.2,51.2,1006.2,233.4,2.2,5.7,231.6,0.51,24.6,27.1,"14:22:00",1
"22/08/09","14:40",0.0,36.0,51.8,1005.5,200.8,2.1,5.0,248.5,0.38,24.6,27.2,"14:34:40",1
"22/08/09","14:50",0.0,36.1,50.9,1005.5,212.7,2.0,4.5,218.3,0.39,24.4,27.2,"14:41:52",1
"22/08/09","15:00",0.0,36.1,48.1,1005.7,234.4,2.0,4.7,234.6,0.44,23.4,27.2,"14:56:48",1
"22/08/09","15:10",0.0,36.1,49.2,1005.7,241.4,1.7,4.3,243.2,0.41,23.8,27.1,"15:03:36",1
"22/08/09","15:20",0.0,35.7,48.9,1005.5,256.7,1.6,5.2,206.2,0.28,23.3,27.1,"15:11:28",1
"22/08/09","15:30",0.0,35.9,48.7,1005.2,255.8,1.5,4.2,206.3,0.31,23.4,27.3,"15:29:12",1
"22/08/09","15:40",0.0,35.5,49.1,1005.2,241.6,1.7,5.0,217.5,0.28,23.2,27.2,"15:39:20",1
"22/08/09","15:50",0.0,35.4,49.2,1005.0,241.4,1.6,4.4,230.8,0.26,23.2,27.3,"15:42:24",1
"22/08/09","16:00",0.0,35.9,49.6,1005.5,222.3,1.1,2.9,225.2,0.32,23.8,27.2,"15:55:20",1
"22/08/09","16:10",0.0,36.0,48.1,1005.2,238.7,1.2,3.4,183.3,0.26,23.3,27.3,"16:04:56",1
"22/08/09","16:20",0.0,35.8,48.4,1005.2,237.6,1.1,3.7,231.4,0.23,23.3,27.2,"16:10:56",1
"22/08/09","16:30",0.0,36.2,48.9,1005.0,240.9,1.0,3.2,206.3,0.25,23.8,27.4,"16:23:52",1
"22/08/09","16:40",0.0,36.2,47.5,1005.2,242.9,0.7,2.1,214.1,0.21,23.3,27.3,"16:31:36",1
"22/08/09","16:50",0.0,36.2,46.6,1005.0,288.7,1.2,2.8,227.0,0.27,23.0,27.5,"16:40:24",1
"22/08/09","17:00",0.0,36.3,47.4,1005.2,234.9,1.5,3.4,213.1,0.24,23.4,27.1,"16:55:20",1
"22/08/09","17:10",0.0,36.1,48.1,1005.2,229.3,1.7,4.0,225.9,0.22,23.4,27.4,"17:08:24",1
"22/08/09","17:20",0.0,35.3,49.5,1004.8,230.1,1.6,3.6,202.7,0.13,23.2,27.4,"17:17:36",1
"22/08/09","17:30",0.0,35.5,49.6,1005.0,226.5,1.3,4.5,239.0,0.15,23.4,27.4,"17:29:04",1
"22/08/09","17:40",0.0,35.1,51.2,1004.8,233.4,1.8,4.2,210.6,0.11,23.5,27.1,"17:34:56",1
"22/08/09","17:50",0.0,34.8,52.8,1004.3,223.3,1.7,3.6,213.5,0.08,23.8,27.5,"17:45:52",1
"22/08/09","18:00",0.0,34.6,53.4,1004.1,230.5,1.5,3.5,235.7,0.08,23.8,27.3,"17:53:44",1
"22/08/09","18:10",0.0,34.2,55.8,1004.1,232.9,2.2,4.3,230.7,0.07,24.1,27.5,"18:01:44",1
"22/08/09","18:20",0.0,33.8,57.7,1003.8,238.6,1.5,3.4,247.0,0.04,24.3,27.4,"18:12:24",1
"22/08/09","18:30",0.0,33.6,59.1,1003.8,261.3,0.6,2.6,232.3,0.02,24.5,27.4,"18:27:36",1
"22/08/09","18:40",0.0,33.1,60.6,1004.1,336.1,1.2,2.8,347.2,0.01,24.5,27.4,"18:31:12",1
"22/08/09","18:50",0.0,32.7,61.7,1003.8,267.2,0.6,1.4,289.0,0.00,24.4,27.2,"18:42:08",1
"22/08/09","19:00",0.0,32.4,63.2,1003.4,271.0,0.6,2.6,228.0,0.00,24.5,27.5,"18:50:02",1
"22/08/09","19:10",0.0,32.2,64.7,1003.1,295.3,0.8,3.2,236.7,0.00,24.7,27.4,"19:04:00",1
"22/08/09","19:20",0.0,31.7,66.2,1003.4,352.4,0.6,1.4,351.0,0.00,24.7,27.2,"19:15:52",1
"22/08/09","19:30",0.0,31.0,68.3,1002.9,341.2,0.7,1.7,5.4,0.00,24.5,27.4,"19:21:36",1
"22/08/09","19:40",0.0,30.4,70.8,1002.6,344.8,0.7,1.3,353.4,0.00,24.5,27.3,"19:32:00",1
"22/08/09","19:50",0.0,30.4,71.1,1002.6,255.1,0.8,3.5,236.7,0.00,24.6,27.5,"19:46:24",1
"22/08/09","20:00",0.0,30.4,69.8,1002.6,273.2,0.6,1.8,333.5,0.00,24.3,27.4,"19:58:48",1
"22/08/09","20:10",0.0,30.3,65.7,1003.1,281.7,1.1,2.7,231.7,0.00,23.2,27.3,"20:02:08",1
"22/08/09","20:20",0.0,30.6,63.5,1002.9,285.6,1.3,3.2,317.5,0.00,22.9,27.3,"20:16:32",1
"22/08/09","20:30",0.0,30.5,63.1,1003.4,255.2,1.0,2.5,246.3,0.00,22.7,27.2,"20:21:52",1
"22/08/09","20:40",0.0,30.2,63.8,1003.4,275.7,0.6,1.8,236.7,0.00,22.6,27.0,"20:31:12",1
"22/08/09","20:50",0.0,29.7,67.5,1003.1,349.7,0.6,1.8,350.0,0.00,23.1,27.2,"20:47:04",1
"22/08/09","21:00",0.0,29.7,69.5,1003.8,296.8,1.0,2.6,224.5,0.00,23.6,27.2,"20:55:20",1
"22/08/09","21:10",0.0,28.7,72.0,1003.6,0.2,1.0,2.0,336.3,0.00,23.2,27.0,"21:03:12",1
"22/08/09","21:20",0.0,28.4,72.8,1004.5,274.3,0.3,1.2,276.1,0.00,23.1,27.1,"21:18:32",1
"22/08/09","21:30",0.0,28.3,73.7,1004.3,349.4,0.7,1.7,340.3,0.00,23.2,27.2,"21:26:40",1
"22/08/09","21:40",0.0,28.1,74.6,1004.3,343.5,0.8,2.1,346.2,0.00,23.2,27.0,"21:30:48",1
"22/08/09","21:50",0.0,28.4,74.1,1004.5,337.5,1.3,2.9,317.0,0.00,23.4,27.0,"21:46:48",1
"22/08/09","22:00",0.0,28.5,73.3,1004.8,341.1,0.8,1.8,352.7,0.00,23.3,27.0,"21:58:56",1
"22/08/09","22:10",0.0,28.8,72.3,1004.8,329.5,1.3,2.8,339.6,0.00,23.4,27.1,"22:05:52",1
"22/08/09","22:20",0.0,28.9,72.2,1004.8,359.9,0.7,1.8,328.3,0.00,23.4,27.1,"22:14:32",1
"22/08/09","22:30",0.0,28.8,72.6,1005.0,31.3,0.6,2.0,359.6,0.00,23.4,27.1,"22:25:12",1
"22/08/09","22:40",0.0,28.7,73.7,1005.0,355.7,1.1,1.8,0.3,0.00,23.6,26.9,"22:32:08",1
"22/08/09","22:50",0.0,28.2,75.7,1004.8,338.1,1.3,2.5,338.3,0.00,23.5,27.1,"22:49:20",1
"22/08/09","23:00",0.0,28.1,76.5,1005.0,344.6,1.1,2.1,346.9,0.00,23.6,26.8,"22:57:28",1
"22/08/09","23:10",0.0,28.0,77.3,1004.8,339.9,1.1,1.9,346.7,0.00,23.7,26.7,"23:02:40",1
"22/08/09","23:20",0.0,28.0,78.1,1005.0,338.0,1.2,2.1,342.2,0.00,23.9,26.8,"23:16:48",1
"22/08/09","23:30",0.0,27.8,78.9,1005.0,340.0,1.1,2.1,337.3,0.00,23.8,26.8,"23:20:02",1
"22/08/09","23:40",0.0,27.9,79.4,1004.8,336.1,1.5,2.2,346.4,0.00,24.0,26.7,"23:38:24",1
"22/08/09","23:50",0.0,28.0,79.6,1004.8,321.9,1.2,2.0,307.7,0.00,24.2,26.7,"23:46:08",1
"22/08/09","24:00",0.0,28.0,79.7,1004.8,317.7,1.0,1.7,334.0,0.00,24.2,26.6,"23:51:04",1
